Tracking 19827 objects as of 22-Aug-2019
HD Live streaming from Space Station
objects crossing your sky now

FLOCK 3M 3

Track FLOCK 3M 3 now!
10-day predictions
FLOCK 3M 3 is classified as:


NORAD ID: 42996
Int'l Code: 2017-068K
Perigee: 499.2 km
Apogee: 523.5 km
Inclination: 97.4 °
Period: 94.7 minutes
Semi major axis: 6882 km
RCS: Unknown
Launch date: October 31, 2017
Source: United States (US)
Launch site: AIR FORCE WESTERN TEST RANGE (AFWTR)
aabbcc
Your satellite tracking list
Your tracking list is empty




NASA's NSSDC Master Catalog

Two Line Element Set (TLE):
1 42996U 17068K   19233.85849847 +.00001071 +00000-0 +51884-4 0  9992
2 42996 097.3775 341.1135 0017681 084.0348 276.2902 15.20550220100054
Source of the keplerian elements: AFSPC